User: anonymous   Login
Location: Unspecified
(0.0000°N, 0.0000°E)
Time: 02:07:28
(UTC+00:00)
Language:

KOREASAT 6 - Orbit

View from above orbital plane
View from above orbital plane
View from above satellite
View from above satellite

Ground track
Ground track

The orbit is defined by the following mean orbital elements,

1 37265U          26145.45561464 +.00000000 +00000-0 +00000-0 0 00009
2 37265   0.0174 293.9019 0002251 129.3828 143.6592  1.00271311    09
Epoch (UTC): 25 May 2026 10:56:05
Eccentricity: 0.0002251
inclination: 0.0174°
perigee height: 35777 km
apogee height: 35796 km
right ascension of ascending node: 293.9019°
argument of perigee: 129.3828°
revolutions per day: 1.00271311
mean anomaly at epoch: 143.6592°

The dashed part of the orbit path shows where the satellite is in the earth's shadow,  

DLR